Find KUIPER-00512

NORAD ID: 68889 Int'l Des: 2026-095AB Owner: KUIP Country: US Constellation: amazon-leo operational
LEOCIRCULAR

Current View

Loading 3D Globe...

About KUIPER-00512

KUIPER-00512 (NORAD 68889) is a amazon-leo constellation satellite launched Apr 28, 2026 by KUIP of US. It operates in LEO, CIRCULAR orbit with a mass of 490.00 kg.

About KUIPER-00512

Description loading...

Upcoming Passes

Passes for default location (London). Set your location on the main map for personalized predictions.

Altitude History

Loading altitude history...

Two-Line Element Set

1 68889U 26095AB 26168.91668981 -.00073030 00000-0 -91623-2 0 9990
2 68889 51.9006 244.9519 0002738 182.3881 197.8998 14.82114164 5892
Epoch: Jun 17, 2026 • Age: 10 hours

Current Status

Altitude 628.4 km
Velocity 7.55 km/s
Sub-Earth Point 45.15°N, 90.45°W
Launch Date Apr 28, 2026
Age 0.1 years
Type internet

Technical Details

Classification Payload
Mass 490.00 kg
Dry Mass 490.00 kg
Total Mass 490.00 kg
Length 1.80 m
Diameter 0.70 m
Span 5.00 m
Shape Box + 2 pan
Manufacturer KUIP
Bus Type Kuiper
Phase Status In Orbit
Owner/State KUIP/US

Most Searched